Tracking 19245 objects as of 19-Aug-2018
HD Live streaming from Space Station
objects crossing your sky now

COSMOS 2192

Track COSMOS 2192 now!
10-day predictions
COSMOS 2192 is classified as:


NORAD ID: 21981
Int'l Code: 1992-030F
Perigee: 1,478.3 km
Apogee: 1,493.1 km
Inclination: 74.0 °
Period: 115.5 minutes
Semi major axis: 7856 km
RCS: 0.6788 m2 (medium)
Launch date: June 3, 1992
Source: Commonwealth of Independent States (former USSR) (CIS)
Launch site: PLESETSK MISSILE AND SPACE COMPLEX (PKMTR)
aabbcc
Your satellite tracking list
Your tracking list is empty




NASA's NSSDC Master Catalog

Two Line Element Set (TLE):
1 21981U 92030F   18229.94967383 -.00000008 +00000-0 +53628-4 0  9993
2 21981 074.0007 212.7958 0009399 313.8723 075.0636 12.46650298192655
Source of the keplerian elements: AFSPC